Wind_Speed
25 25 25 25 25 25 25 23 21 19 19 17 16 15 14 12 11 10 9 8 8 7 7 6 6 6 5 5 5 5 4 4 4 5 5 5 4 4 4 4 4 4 4
29 27 27 26 26 28 28 27 25 23 21 21 19 18 17 15 13 12 11 10 10 9 9 8 8 7 7 7 6 6 5 4 5 5 5 5 4 4 4 4 4 4 5
33 32 30 28 28 28 28 27 26 25 24 23 23 21 19 18 16 15 14 13 12 11 11 10 9 9 8 8 7 7 6 6 5 5 5 5 5 5 5 4 5 5 5
36 35 34 32 31 29 27 27 28 27 26 26 25 24 22 21 19 18 17 15 14 13 13 12 12 11 10 9 9 8 8 8 7 7 6 6 6 6 6 6 6 6 6
37 37 36 36 34 32 29 27 27 28 27 26 26 26 25 24 22 20 19 18 16 15 15 14 14 13 12 11 11 10 10 9 9 9 8 8 8 8 7 7 8 8 8
38 38 37 38 37 35 32 30 29 28 27 26 27 27 28 27 25 23 22 21 19 18 17 17 16 15 14 13 13 12 12 11 11 10 10 10 9 9 9 9 9 9 9
38 38 38 39 39 38 36 34 31 30 29 28 28 28 28 29 29 27 25 23 22 21 20 19 19 18 17 16 15 14 14 14 13 13 12 12 12 11 11 11 11 11 11
37 38 40 40 40 40 39 37 35 33 32 30 28 28 30 29 29 29 28 27 26 25 23 22 21 20 19 18 17 17 16 16 15 15 15 14 14 14 13 13 13 13 13
33 36 39 40 41 41 41 39 37 36 34 32 31 30 28 29 30 31 30 30 29 28 26 25 24 24 22 21 21 20 19 18 18 17 17 17 16 16 15 15 15 15 16
29 32 35 38 40 41 42 42 40 38 37 35 34 32 31 29 31 31 30 31 32 32 30 28 27 27 25 24 23 22 22 21 20 20 20 19 19 18 18 18 18 18 18
26 28 31 35 38 40 42 42 42 41 39 38 37 35 34 32 32 32 31 31 32 33 33 31 30 29 28 27 26 25 24 23 22 22 22 22 21 21 20 20 20 20 21
23 25 28 31 34 38 40 41 42 43 42 41 39 37 36 35 34 34 34 33 33 33 34 33 32 31 30 30 29 28 27 26 25 24 24 24 23 23 23 22 22 22 22
20 23 25 28 31 34 38 40 42 43 43 42 42 40 38 38 36 36 36 36 35 34 34 34 34 33 32 31 31 30 29 28 27 27 26 26 25 25 25 25 24 24 25
17 19 21 24 28 31 34 37 39 42 43 43 43 43 42 40 39 39 38 37 36 36 35 35 35 35 35 33 32 32 32 31 30 29 28 27 27 27 27 26 26 26 26
14 16 18 21 24 28 31 35 37 38 40 42 43 43 42 41 40 39 39 39 37 36 37 36 36 36 35 35 34 33 33 32 32 31 30 30 29 29 29 28 28 28 29
12 14 15 18 21 24 28 31 34 36 37 39 41 42 43 42 41 40 40 39 39 38 37 37 37 37 37 36 35 35 34 34 33 32 31 31 30 30 30 30 30 30 30
12 12 13 15 17 20 24 27 29 32 34 36 38 40 41 41 41 40 40 39 39 39 39 38 38 38 37 37 36 35 35 35 34 33 33 32 32 31 32 31 31 31 31
11 10 10 11 13 16 18 20 23 27 29 31 34 36 38 37 39 38 38 39 39 38 38 37 38 38 37 37 36 36 36 36 35 35 34 34 33 34 33 32 31 30 31
12 11 9 9 10 12 14 16 18 20 23 26 29 31 33 34 35 35 35 36 36 37 36 35 36 37 36 35 35 36 36 36 35 35 34 34 34 34 33 32 30 30 30
14 12 10 8 7 8 10 12 14 16 18 21 23 26 28 30 32 32 32 33 34 33 33 34 35 36 36 36 35 35 35 34 34 34 34 34 34 33 32 31 30 30 30
17 15 13 10 7 6 6 8 11 13 14 16 18 21 24 27 28 29 28 28 29 30 30 31 32 33 34 34 33 33 33 33 32 33 33 31 31 31 31 30 30 29 28
19 18 16 13 10 6 5 5 7 10 11 13 14 17 19 22 22 23 25 25 25 26 28 30 30 30 30 30 31 30 30 31 31 30 30 30 30 30 29 28 28 27 27
21 19 18 16 12 8 6 4 4 6 9 11 12 13 15 17 18 19 21 22 23 23 24 26 27 28 28 28 28 28 27 27 27 28 27 27 27 28 27 26 25 24 24
22 21 20 18 15 12 8 5 3 3 5 7 8 10 12 13 14 16 17 17 19 19 19 20 22 23 24 25 25 25 25 25 25 25 25 25 24 24 24 23 22 22 21
24 23 22 20 18 15 12 9 5 2 1 4 5 7 9 10 11 13 14 15 15 16 17 18 18 18 18 19 20 21 22 22 22 22 23 23 23 22 21 20 20 19 19
26 24 23 22 20 18 16 13 10 7 3 0 2 4 6 8 9 11 12 13 14 15 15 15 15 15 16 16 17 18 20 21 21 21 21 21 21 21 20 19 19 18 17
Wind_Direction
258 255 253 254 250 249 250 250 247 247 246 245 246 247 247 245 239 236 234 232 231 230 232 231 223 221 222 215 213 213 213 209 202 197 199 203 206 213 218 225 234 243 247
258 258 256 256 253 251 250 250 247 246 246 244 243 243 245 244 239 237 236 232 231 231 232 233 229 226 224 221 219 217 218 218 214 211 211 212 218 223 225 234 246 252 259
254 255 255 255 254 252 250 249 247 245 244 243 241 242 242 242 240 237 236 233 231 232 231 232 232 230 228 224 222 219 219 221 221 221 221 222 227 233 236 246 254 259 264
251 251 251 252 252 252 254 251 246 246 244 242 240 240 240 239 240 238 237 235 233 233 233 233 233 232 230 228 227 226 225 226 227 229 232 234 238 243 249 254 258 263 269
250 249 249 248 249 249 250 249 248 246 244 241 238 237 237 237 238 238 238 236 234 234 234 234 233 233 233 232 232 233 234 233 234 236 239 242 245 249 253 257 261 265 271
248 248 247 245 245 245 246 245 245 245 243 241 239 237 237 236 236 238 238 236 235 235 235 235 235 235 235 236 236 238 239 240 241 242 243 244 246 249 253 257 261 265 270
247 246 245 244 242 241 242 241 240 242 242 241 240 238 238 237 236 237 237 237 235 236 236 236 236 236 238 238 239 240 242 244 246 247 247 247 249 252 255 259 263 268 272
247 245 244 243 242 240 239 237 237 238 239 239 239 239 239 239 238 237 237 238 236 235 236 237 237 238 239 240 241 241 243 246 249 251 251 251 253 257 261 264 267 271 274
247 246 244 242 241 238 237 235 234 235 235 237 239 240 238 238 237 237 238 238 236 235 236 237 237 238 240 241 242 243 245 248 250 253 254 256 258 261 265 268 271 274 277
250 248 245 242 240 239 236 235 233 233 233 235 236 238 236 236 236 237 238 238 237 237 238 239 239 238 240 241 243 245 246 249 251 254 256 257 259 262 267 269 272 275 278
252 251 248 243 240 238 236 235 233 232 232 232 234 236 237 237 236 234 235 236 237 238 238 238 239 239 241 242 244 246 248 249 251 254 256 258 259 262 266 269 273 276 278
256 253 249 245 241 239 236 234 233 232 232 231 232 234 235 235 236 234 234 236 237 237 236 237 238 240 241 242 244 246 249 250 251 254 256 258 259 262 265 268 273 275 276
262 256 251 246 242 239 236 234 233 233 232 232 232 233 234 234 236 235 236 236 236 237 237 237 237 238 241 242 244 246 248 249 251 254 257 258 260 262 265 267 271 273 275
268 261 254 248 243 239 236 235 235 235 234 233 232 233 234 234 234 234 234 235 235 237 238 237 238 240 241 243 244 246 247 249 251 254 256 259 260 261 264 267 270 272 274
275 266 260 251 246 241 238 236 236 236 235 234 233 233 233 234 235 235 235 235 235 237 238 238 238 239 241 243 244 246 247 249 251 252 255 258 260 263 264 266 269 272 274
288 277 268 258 251 245 240 238 236 235 236 235 234 234 233 234 234 235 236 235 235 236 238 237 238 240 241 241 244 246 246 248 249 252 254 257 260 262 265 267 268 270 273
305 292 281 266 257 251 245 241 238 236 235 236 235 235 234 234 233 234 235 236 236 237 238 238 239 240 240 242 244 245 245 247 249 251 254 257 260 262 265 267 267 270 271
334 315 301 282 268 258 251 246 241 238 236 235 235 236 235 235 235 236 236 236 236 236 236 236 239 241 241 242 244 245 246 248 248 250 253 256 259 262 265 266 266 269 270
349 339 324 303 283 265 254 248 244 239 238 237 236 236 235 236 235 235 236 235 235 234 234 235 238 238 239 241 242 244 245 247 247 250 253 255 258 260 263 263 265 267 269
2 355 348 332 304 276 259 251 247 242 240 237 234 234 235 235 235 236 235 235 235 234 234 236 238 240 241 243 245 246 247 248 248 249 252 253 255 257 259 261 264 267 268
15 12 6 358 339 307 274 255 246 240 238 235 234 233 235 236 236 235 235 235 235 237 238 238 239 241 242 244 245 245 246 246 246 249 251 252 254 255 258 260 263 266 268
18 18 15 9 2 344 310 274 254 244 242 239 235 233 235 236 237 236 236 236 236 237 239 239 240 240 240 240 241 242 243 243 244 247 249 250 252 254 257 259 263 265 267
20 20 19 17 14 7 351 316 270 249 242 241 237 231 230 232 235 237 236 236 235 234 234 234 235 236 237 237 238 239 240 242 244 246 247 251 253 255 257 259 262 264 266
24 24 25 25 24 22 17 7 330 261 242 235 230 227 228 229 231 233 234 235 233 232 230 231 231 232 234 235 236 238 238 240 243 245 244 246 248 251 252 254 259 263 265
27 28 29 31 32 32 30 29 28 13 278 237 226 224 224 227 227 229 231 231 230 230 232 232 229 228 229 232 233 234 235 238 239 240 241 245 250 252 252 254 257 259 262
28 30 32 33 34 36 38 42 43 41 39 81 214 217 219 218 216 215 217 220 224 227 228 228 226 226 228 229 232 234 234 236 236 239 244 247 247 250 252 253 256 257 260
Height
5868 5869 5871 5873 5874 5876 5878 5880 5881 5883 5884 5885 5887 5888 5889 5890 5891 5892 5893 5895 5896 5897 5898 5899 5900 5901 5902 5903 5904 5905 5906 5907 5908 5909 5910 5911 5912 5913 5914 5915 5915 5916 5917
5861 5863 5864 5866 5868 5870 5872 5874 5875 5877 5879 5881 5883 5884 5886 5887 5888 5890 5891 5892 5894 5895 5896 5898 5899 5900 5901 5902 5903 5904 5905 5906 5907 5908 5909 5910 5911 5912 5913 5914 5914 5915 5916
5853 5855 5857 5859 5861 5863 5865 5867 5869 5871 5874 5876 5878 5880 5881 5883 5885 5887 5888 5890 5891 5893 5894 5896 5897 5898 5900 5901 5902 5903 5904 5905 5906 5907 5908 5909 5910 5911 5912 5913 5913 5914 5914
5844 5847 5849 5852 5854 5856 5858 5860 5863 5865 5868 5870 5872 5875 5877 5879 5881 5883 5885 5887 5888 5890 5892 5893 5895 5896 5897 5899 5900 5901 5903 5904 5905 5906 5907 5908 5909 5909 5910 5911 5911 5912 5912
5835 5838 5841 5843 5846 5849 5851 5853 5856 5858 5861 5863 5866 5868 5871 5874 5876 5879 5881 5883 5885 5887 5888 5890 5892 5894 5895 5896 5898 5899 5901 5902 5903 5904 5905 5906 5907 5908 5908 5909 5909 5910 5910
5825 5828 5831 5834 5837 5840 5844 5846 5849 5851 5854 5856 5859 5862 5865 5868 5871 5873 5876 5878 5880 5882 5885 5887 5889 5891 5892 5894 5895 5897 5898 5899 5900 5902 5903 5903 5904 5905 5906 5906 5907 5907 5908
5815 5818 5821 5824 5828 5831 5835 5838 5841 5844 5846 5849 5852 5856 5859 5861 5865 5868 5870 5873 5876 5878 5880 5883 5885 5887 5889 5890 5892 5893 5895 5896 5898 5899 5900 5901 5901 5902 5903 5903 5904 5904 5905
5805 5808 5811 5814 5818 5822 5825 5829 5832 5836 5839 5842 5845 5848 5851 5855 5858 5861 5864 5867 5870 5873 5875 5878 5880 5882 5884 5886 5888 5890 5891 5893 5894 5895 5896 5897 5898 5899 5900 5900 5901 5901 5901
5795 5798 5801 5804 5807 5811 5815 5819 5823 5827 5831 5834 5838 5841 5844 5848 5851 5854 5858 5861 5864 5867 5869 5872 5875 5877 5880 5882 5883 5885 5887 5888 5890 5891 5892 5893 5894 5895 5896 5897 5897 5897 5897
5787 5789 5791 5794 5797 5801 5805 5809 5814 5818 5822 5826 5829 5833 5837 5841 5844 5848 5851 5854 5857 5860 5863 5866 5869 5871 5874 5876 5878 5880 5882 5884 5885 5887 5888 5889 5890 5891 5892 5892 5893 5893 5893
5780 5781 5782 5785 5787 5791 5795 5799 5804 5808 5813 5817 5821 5824 5828 5833 5836 5840 5843 5847 5850 5853 5856 5859 5862 5865 5868 5870 5872 5874 5876 5878 5880 5881 5883 5884 5885 5886 5887 5887 5888 5888 5888
5772 5773 5774 5776 5779 5782 5786 5790 5795 5799 5803 5808 5812 5816 5820 5824 5828 5832 5836 5839 5842 5845 5849 5852 5855 5858 5861 5864 5866 5868 5870 5872 5874 5875 5877 5878 5879 5880 5881 5882 5882 5882 5882
5766 5766 5767 5769 5770 5773 5777 5781 5785 5789 5794 5799 5803 5807 5811 5815 5819 5823 5827 5831 5834 5838 5841 5845 5848 5851 5854 5857 5859 5861 5863 5865 5867 5869 5870 5872 5873 5874 5875 5876 5876 5876 5876
5760 5760 5761 5762 5763 5766 5769 5772 5776 5780 5785 5789 5794 5798 5802 5806 5810 5814 5819 5822 5826 5830 5834 5837 5840 5843 5846 5849 5852 5854 5857 5859 5860 5862 5864 5865 5866 5867 5868 5869 5870 5870 5870
5756 5755 5755 5756 5757 5758 5761 5764 5767 5771 5775 5780 5785 5789 5793 5797 5801 5805 5809 5814 5818 5821 5826 5829 5832 5835 5838 5841 5844 5847 5849 5851 5853 5855 5856 5858 5859 5860 5861 5862 5863 5863 5863
5752 5751 5750 5750 5751 5752 5753 5756 5759 5763 5767 5771 5775 5779 5784 5788 5792 5796 5800 5804 5808 5813 5817 5820 5824 5827 5830 5833 5836 5838 5841 5843 5845 5847 5849 5851 5852 5853 5854 5855 5855 5856 5856
5748 5747 5746 5745 5745 5746 5747 5749 5752 5755 5758 5762 5766 5771 5775 5778 5783 5786 5791 5795 5799 5804 5808 5811 5815 5818 5822 5825 5828 5830 5832 5835 5837 5839 5841 5843 5844 5845 5846 5847 5848 5848 5848
5746 5744 5742 5741 5740 5740 5741 5743 5745 5748 5751 5754 5757 5761 5766 5770 5774 5778 5782 5787 5790 5794 5799 5802 5806 5809 5813 5816 5819 5822 5824 5827 5829 5831 5833 5834 5836 5837 5838 5839 5840 5840 5840
5745 5742 5740 5738 5737 5736 5737 5738 5740 5742 5744 5747 5750 5754 5758 5762 5766 5771 5775 5778 5782 5786 5790 5794 5797 5800 5804 5807 5810 5813 5815 5818 5820 5822 5824 5826 5827 5829 5830 5831 5832 5832 5832
5744 5741 5738 5736 5734 5733 5734 5734 5736 5737 5739 5741 5744 5747 5751 5755 5759 5763 5767 5771 5774 5777 5781 5785 5789 5792 5795 5798 5801 5804 5807 5809 5811 5814 5816 5818 5819 5821 5822 5823 5824 5824 5825
5744 5741 5737 5734 5732 5731 5731 5732 5733 5734 5735 5737 5739 5742 5745 5749 5752 5756 5760 5763 5766 5770 5774 5777 5781 5784 5787 5790 5793 5796 5798 5801 5803 5805 5808 5810 5811 5813 5814 5815 5816 5817 5817
5746 5742 5738 5734 5731 5730 5729 5729 5730 5731 5732 5734 5735 5738 5740 5743 5746 5750 5753 5756 5760 5763 5767 5770 5774 5777 5780 5783 5785 5788 5790 5793 5795 5798 5800 5801 5803 5805 5807 5808 5809 5809 5810
5748 5743 5739 5735 5732 5729 5728 5727 5728 5728 5729 5731 5732 5734 5736 5739 5742 5745 5748 5751 5754 5757 5761 5764 5767 5770 5773 5776 5778 5781 5783 5786 5788 5790 5793 5794 5796 5798 5799 5801 5802 5802 5803
5750 5745 5741 5736 5733 5730 5728 5727 5726 5727 5727 5729 5730 5731 5734 5736 5738 5741 5744 5747 5750 5753 5756 5759 5762 5764 5767 5769 5772 5775 5777 5779 5781 5784 5786 5788 5789 5791 5792 5794 5795 5796 5797
5753 5748 5744 5739 5735 5732 5729 5727 5726 5726 5726 5727 5728 5729 5731 5733 5736 5738 5741 5743 5746 5749 5751 5754 5756 5759 5761 5764 5766 5769 5771 5774 5776 5778 5780 5782 5784 5785 5787 5788 5789 5790 5791
5757 5752 5748 5743 5739 5735 5732 5729 5728 5727 5727 5727 5727 5728 5729 5731 5733 5735 5738 5741 5743 5746 5748 5751 5753 5755 5757 5759 5762 5764 5767 5769 5771 5773 5775 5777 5779 5780 5782 5783 5784 5785 5786